MysteryTwister C3
NUMBER OF ACTIVE MEMBERS:

7955
Follow us: Facebook Twitter
 



Level I Challenges (75)

Page 1 of the challenges in Level I, ordered by date posted (the most recent appear first).

A hidden word

[theofanidis-02] - 461 users already solved this challenge, 86 are working on it.
 
 
 

This PDF file is supposed to contain a hidden codeword. Can you find it?
Read more...

Click here to get to the corresponding forum topic to share your opinion.
Click here to download the challenge.
Click here to download the additional file of the challenge.

Author: This email address is being protected from spambots. You need JavaScript enabled to view it.
Published on: 2013-01-06 14:32
Maximum number of attempts for this challenge: 15

All successful users of this challenge

Rank User (#461) Achieved points (Global score) y-m-d - h:m:s

Bart den Hartog (Bart13) 200 (116412) 2013-01-06 15:42:38
Camille (Kam139) 200 (2642) 2013-01-06 15:47:08
Viktor (Veselovský) 200 (109843) 2013-01-06 15:49:04
Armin Krauss (argh) 200 (149821) 2013-01-06 16:15:30
#5 H. Lautenschlager (helmi) 200 (18162) 2013-01-06 16:45:04
#6 Kurt Gebauer (Yokozuna) 200 (120839) 2013-01-06 16:45:59
#7 Michael Möller (michaelm) 200 (117401) 2013-01-06 18:32:22
#8 Julia Werdelmann (jw) 200 (10407) 2013-01-06 19:44:03
#9 KW (qwer*) 200 (13753) 2013-01-06 20:22:27
#10 J. M. (jomandi) 200 (113270) 2013-01-06 22:09:30
#11 Seth Kintigh (DarkFibre) 200 (79471) 2013-01-06 22:33:03
#12 Thomas Lambert (lambert) 200 (38594) 2013-01-07 06:23:44
#13 Roland Jansen (roland) 200 (17392) 2013-01-07 06:49:50
#14 Holti (Holti) 200 (6035) 2013-01-07 11:21:59
#15 Luigi Tomelli (archstanton) 200 (95549) 2013-01-07 13:37:54
#16 E.T (Ertheb) 150 (54872) 2013-01-07 17:54:15
#17 Nathan (Witten) 150 (25326) 2013-01-07 20:13:50
#18 Hans Peter (hanspeter) 150 (48115) 2013-01-08 08:44:47
#19 Christof Kleber (Loki) 150 (5848) 2013-01-08 09:41:23
#20 vas (pet) 150 (8197) 2013-01-08 11:14:33
#21 Em Doulgerakis (Greko) 150 (109970) 2013-01-08 11:24:00
#22 Philipp Knapp (philipp312) 133 (3357) 2013-01-09 00:57:02
#23 J (j1m9) 133 (2180) 2013-01-09 01:14:54
#24 Joe R (iceclown) 133 (2272) 2013-01-09 02:38:27
#25 Chris (CCChris) 133 (233) 2013-01-09 09:30:58
#26 zahir mohsen moradi (ariobarzan) 125 (99757) 2013-01-09 23:22:03
#27 Jay Kay (Merty) 125 (3726) 2013-01-10 13:19:11
#28 Kevin (Zielscheibe) 120 (120) 2013-01-10 19:39:51
#29 Michel Van Caneghem (vancan) 120 (49719) 2013-01-10 20:53:09
#30 Stepan (m1sterx) 113 (19165) 2013-01-14 08:15:22
#31 Horst Kevin (lordstege) 113 (1419) 2013-01-14 11:40:21
#32 gnampf (gnampf) 111 (111) 2013-01-14 19:00:16
#33 dbuq (dbuq) 110 (22762) 2013-01-15 15:09:20
#34 kevin shaw (steggily) 110 (2298) 2013-01-16 09:50:37
#35 Iain Sharp (WoodenHedgehog) 110 (2196) 2013-01-16 09:53:55
#36 Hank (hanky) 108 (22859) 2013-01-17 17:37:10
#37 masam (jimboo) 108 (18486) 2013-01-18 11:50:13
#38 Hannes (Hartmann) 107 (8680) 2013-01-19 17:31:35
#39 tuighin (tuighi) 107 (609) 2013-01-20 20:33:29
#40 Philip Thompson (WIZO) 106 (206) 2013-01-23 09:33:07
#41 Moris (lordblue) 106 (1734) 2013-01-23 10:03:58
#42 Snake (snk) 104 (51689) 2013-01-28 15:14:15
#43 Daniel Fretwell (fretty) 104 (30107) 2013-01-30 11:05:56
#44 Sankalp Ghatpande (Deadlyelder) 104 (1637) 2013-01-30 13:00:26
#45 Dikshant (chalisgaonkachintu) 104 (504) 2013-01-30 13:10:50
#46 j.h. (haegarq) 104 (11696) 2013-01-30 16:51:59
#47 Michal (misoxxx) 104 (1710) 2013-01-31 19:36:25
#48 Green Comma (greencomma) 104 (304) 2013-02-01 04:37:58
#49 Ramses (Ramses II) 104 (1924) 2013-02-01 19:06:36
#50 Jan Knap (maddoxik) 104 (2358) 2013-02-02 05:32:53
#51 c (ongaku) 103 (103) 2013-02-08 03:47:49
#52 Schardt (roBo) 103 (103) 2013-02-08 15:08:45
#53 h3po (h3po) 103 (20433) 2013-02-11 02:03:29
#54 luke (lmason08) 102 (202) 2013-02-17 21:35:02
#55 Matthias Horst (Saihttam) 102 (202) 2013-02-18 16:38:28
#56 Frans (fransl) 102 (2233) 2013-02-26 13:36:18
#57 William Robson (logiblocs) 102 (202) 2013-02-27 21:32:39
#58 Ikke (conamir) 102 (402) 2013-03-02 22:10:49
#59 Everdoh (Everdoh) 102 (624) 2013-03-04 04:11:29
#60 vanderguile (vanderguile) 101 (2916) 2013-03-14 01:08:58
#61 Hans Joachim Girulat (joregi) 101 (28462) 2013-03-15 13:16:40
#62 RPH (derichard) 101 (27044) 2013-03-16 13:03:38
#63 Ashraf Nadeem (anadeem) 101 (801) 2013-03-19 11:31:31
#64 Kirill (ineaugh) 101 (1920) 2013-03-20 02:09:01
#65 Mayuresh Anand (effort2break) 101 (8728) 2013-03-20 18:36:15
#66 Schulze (user2000) 101 (201) 2013-03-21 03:33:48
#67 Dusan (xxdradus) 101 (40134) 2013-03-22 08:31:29
#68 Muendo (muendo) 101 (3501) 2013-03-25 12:19:59
#69 Jonathan (Elrond) 101 (801) 2013-03-25 20:27:57
#70 Petra (humppapenguin) 101 (3872) 2013-03-28 01:35:02
#71 Bernhard Gruber (bgr) 101 (22631) 2013-04-09 12:52:12
#72 Velko Nikolov (staafl) 101 (13467) 2013-04-09 18:16:22
#73 David (aki321) 101 (27482) 2013-04-10 15:29:07
#74 aryo adhimukti (aryo) 101 (401) 2013-04-14 09:43:22
#75 Orfeas (ons) 101 (601) 2013-04-14 11:34:46
#76 mk (bilbobeutlin) 101 (12340) 2013-04-17 22:22:59
#77 Ben H (benh) 101 (535) 2013-04-20 00:53:34
#78 Marius Strietholt (Solution) 101 (201) 2013-04-22 16:28:08
#79 Step (l0rdp3rth) 101 (836) 2013-04-22 16:49:03
#80 Michael Gregorius (Vidar) 101 (601) 2013-04-22 19:26:15
#81 Mathias (KeNdo) 101 (2289) 2013-04-23 12:30:13
#82 Hansemann (hansemak) 101 (3522) 2013-04-23 15:13:31
#83 Mainka (Rheinandcowboy) 101 (201) 2013-04-23 19:25:49
#84 Paul Duplys (pd) 101 (1525) 2013-04-23 23:18:12
#85 swarmspider (swarmspider) 101 (4425) 2013-04-24 16:00:35
#86 R.Gunn (Gunn) 101 (601) 2013-04-24 17:47:06
#87 Philipp (Kohai) 101 (2208) 2013-04-25 12:41:34
#88 Christian (chrikru) 101 (520) 2013-04-26 10:10:07
#89 Klaus Busch (nylix) 101 (1022) 2013-04-26 14:51:18
#90 Ramon Rojas (superme) 101 (3409) 2013-04-28 02:08:28
#91 Jörg Schwarzwälder (secuso) 101 (1509) 2013-05-06 22:57:16
#92 Stefan (sdn) 101 (5137) 2013-05-07 21:46:20
#93 Alexander Buerger (a.buerger) 101 (2332) 2013-05-15 14:15:23
#94 Javantea (Javantea) 101 (38889) 2013-05-16 05:53:52
#95 Sebastian Slupina (Grandwizard) 101 (6901) 2013-05-20 22:32:45
#96 djr (lentfri) 101 (2128) 2013-05-21 11:00:34
#97 Felix (Flix) 101 (13612) 2013-05-22 19:45:02
#98 n a (jarofyarr) 101 (1901) 2013-05-23 17:47:40
#99 CryptY (Grompf) 101 (2880) 2013-05-28 16:02:54
#100 Markus S. (Brisios) 101 (402) 2013-05-31 00:02:48
#101 Christian Inci (ch100) 101 (7761) 2013-05-31 10:53:02
#102 chris_3stones (3stones) 101 (34472) 2013-06-10 18:54:10
#103 Fjodor Karamasow (Fjodor) 101 (3326) 2013-06-23 19:05:43
#104 Steve (Samacian) 101 (23704) 2013-06-27 01:42:55
#105 Bernd (BRK) 101 (2275) 2013-07-01 21:28:08
#106 Peter Grosse-Hering (Peter) 101 (6674) 2013-07-03 18:06:22
#107 Gianluca Andriolo (Andriolo) 101 (3900) 2013-07-04 11:04:12
#108 Ralf Stephan (rwst) 101 (22735) 2013-07-10 11:54:03
#109 Uwe (UTGC) 101 (401) 2013-07-14 13:25:44
#110 Vlatiha Romanova (Vlatiha) 101 (10223) 2013-07-16 11:15:15
#111 Almut (problelmo) 101 (45992) 2013-07-17 00:13:18
#112 Gronas (gronas) 101 (2567) 2013-07-18 16:24:58
#113 lion (lion) 101 (301) 2013-07-19 09:44:03
#114 Philipp Hammer-Pohlau (phase2) 101 (17981) 2013-07-21 20:06:02
#115 Carsten Hess (machess) 100 (700) 2013-07-26 19:42:03
#116 Ricardo Oliveira Souza (ricardooliveirasouza) 100 (1101) 2013-07-27 01:32:48
#117 Manuel Jebauer (manuelj) 100 (500) 2013-08-01 14:18:14
#118 Alexander Pöllmann (alexanderla) 100 (601) 2013-08-03 16:24:48
#119 JanAo (JanAo) 100 (400) 2013-08-07 11:00:30
#120 drunkeNNN (drunkeNNN) 100 (301) 2013-08-08 22:23:43
#121 oldak (oldak) 100 (1300) 2013-08-09 13:18:15
#122 Eyal (eyalfishel) 100 (3583) 2013-08-09 19:07:12
#123 Andreas H. (Cyrpius) 100 (2666) 2013-08-13 17:04:50
#124 Victor Tobies (Donald) 100 (2567) 2013-08-14 22:25:36
#125 Thomas Gonda (TomG) 100 (33741) 2013-08-21 10:59:24
#126 Geoffrey (FreshGod) 100 (2163) 2013-08-25 16:48:36
#127 Ismeet Kaur Makkar (ismeettkaur) 100 (1626) 2013-08-31 06:28:11
#128 Caitlyn Shane (catilie) 100 (200) 2013-08-31 23:38:42
#129 Alexander (cruachan) 100 (16051) 2013-09-07 01:42:42
#130 Richard (Richard) 100 (1761) 2013-09-11 18:24:02
#131 Benedikt M. (bm91) 100 (4112) 2013-09-16 18:05:19
#132 Julien (deserting) 100 (207) 2013-09-18 03:00:56
#133 Erich (ErichSt) 100 (4862) 2013-09-18 15:01:45
#134 myst3rytw1st3r (myst3rytw1st3r) 100 (500) 2013-09-18 15:24:26
#135 Mike (IILaryII) 100 (409) 2013-09-18 15:47:04
#136 Martina (Nikita) 100 (3863) 2013-09-20 17:09:10
#137 Benny (Kingombo) 100 (3663) 2013-09-20 17:17:08
#138 Heiko Kirsch (DENISOVA) 100 (1758) 2013-09-28 18:38:07
#139 Brad Slifer (peckerino) 100 (200) 2013-10-07 22:30:06
#140 Sebastian (bebop) 100 (300) 2013-10-17 13:14:39
#141 Boris (Kaasu) 100 (16566) 2013-10-17 23:17:24
#142 Hannes Nötzli (Faust) 100 (4781) 2013-10-28 17:34:37
#143 fact (factoreal) 100 (400) 2013-11-22 17:09:01
#144 artmagic (artmagic) 100 (6298) 2013-12-01 22:47:27
#145 Jim Gillogly (Scryer) 100 (21260) 2013-12-02 09:21:57
#146 joona1 (joona1) 100 (100) 2013-12-04 20:47:01
#147 Brad (braddrew) 100 (15878) 2013-12-06 10:54:19
#148 Aline Bathen (abathen) 100 (300) 2013-12-09 00:58:38
#149 Alain (Integral) 100 (198642) 2013-12-15 11:22:11
#150 Max Mustermann (MustermM) 100 (6661) 2013-12-16 10:58:25
#151 cworstell (ace2) 100 (4870) 2013-12-19 03:23:19
#152 bla (bla) 100 (2750) 2013-12-19 09:06:52
#153 Nir (nirarbel) 100 (500) 2013-12-24 03:57:21
#154 Thomas (Elesthor) 100 (1100) 2013-12-25 12:04:35
#155 teifi (teifi) 100 (2251) 2013-12-26 17:01:55
#156 Backes Thierry (Backes) 100 (200) 2013-12-30 01:23:29
#157 Kim H. S. (tenchijin) 100 (21386) 2013-12-31 09:48:08
#158 Csaba Fitzl (csaby) 100 (6696) 2013-12-31 12:30:07
#159 Joost (Joost) 100 (2653) 2014-01-02 15:50:12
#160 Pavel (haw) 100 (22728) 2014-01-02 19:18:12
#161 A R (Gorbag) 100 (2037) 2014-01-08 14:36:50
#162 P (PP65477) 100 (700) 2014-01-11 20:52:44
#163 James Booth (jimbojetset35) 100 (2547) 2014-01-14 00:23:34
#164 Waylon (waylon531) 100 (3265) 2014-01-14 20:13:32
#165 Lucy (Ultramarin) 100 (2009) 2014-01-15 00:55:46
#166 Forrest Gump (Polyphem) 100 (38763) 2014-01-18 16:59:51
#167 Felix Eckardt (Felck) 100 (3464) 2014-01-18 17:46:33
#168 Merlin de la Haye (Merlin) 100 (700) 2014-01-19 22:10:43
#169 Flo (sealth) 100 (13472) 2014-01-20 23:44:11
#170 Paul Wagner (Sequence1) 100 (602) 2014-01-21 16:46:23
#171 Marcel (bene1512) 100 (20896) 2014-01-29 20:48:39
#172 Nofre Tete (noffi) 100 (10522) 2014-02-09 20:54:55
#173 Shoukat (e195633) 100 (10617) 2014-02-10 20:18:32
#174 Joerg Schaeffler (DrAcula) 100 (2948) 2014-02-14 12:04:52
#175 mark (FivePrime) 100 (3345) 2014-02-14 14:07:21
#176 Karolis (Karmatakaz) 100 (1716) 2014-02-22 11:26:29
#177 Ernesta (nesta) 100 (3359) 2014-02-22 15:19:40
#178 Sascha (The Hoddich) 100 (4350) 2014-02-24 10:13:17
#179 Tomas (Deathdealer) 100 (3060) 2014-02-25 17:40:17
#180 Richard (3drichard) 100 (100) 2014-02-27 22:56:21
#181 Ulf Nilsson (unilsson) 100 (1100) 2014-03-04 22:08:28
#182 Matt Frederick (Monp) 100 (100) 2014-03-07 05:06:53
#183 Jinx (Jinx) 100 (700) 2014-03-09 20:37:35
#184 Axel Reyno (axelreyno) 100 (2243) 2014-03-10 08:28:44
#185 Stuart (stuartg) 100 (3558) 2014-03-12 07:38:12
#186 Thomas K. (gjoker) 100 (300) 2014-03-13 09:59:57
#187 yusef (yusef) 100 (3558) 2014-03-20 13:05:38
#188 Karl Schutt (günter) 100 (34469) 2014-03-23 15:50:37
#189 Walram L. (Sugambrus) 100 (400) 2014-03-23 23:38:15
#190 Diego (druk) 100 (800) 2014-03-30 14:46:00
#191 Jared Swets (deranjer) 100 (400) 2014-03-30 20:01:28
#192 Chris Lammers (Fritter) 100 (1541) 2014-04-01 05:07:25
#193 Dave Morgan (Drasek) 100 (300) 2014-04-01 21:24:31
#194 Ralf Kreutel (anoia) 100 (300) 2014-04-06 12:05:28
#195 Simone (Momo) 100 (5478) 2014-04-08 22:05:59
#196 joe (herbert) 100 (800) 2014-04-18 16:54:19
#197 Siggi Kraus (Kruxi) 100 (701) 2014-04-28 19:17:53
#198 Michael (PolarBITS) 100 (200) 2014-04-30 01:31:46
#199 Nik (LastObserver) 100 (3552) 2014-05-03 21:33:36
#200 Nory (NKP) 100 (500) 2014-05-04 23:31:30
#201 Sean Atkinson (Seanwatkinson) 100 (410) 2014-05-19 00:04:38
#202 Igor (idipaolo) 100 (9421) 2014-05-19 00:51:23
#203 BurzynskiM (BurzynskiM) 100 (100) 2014-05-22 22:19:39
#204 Thomas Schmucker (dg) 100 (26066) 2014-05-30 15:31:01
#205 pouria (blacksite) 100 (2113) 2014-05-31 16:36:26
#206 caesar ([caesar]) 100 (10738) 2014-06-02 21:06:18
#207 Rob (robefh) 100 (2143) 2014-06-03 21:15:27
#208 Eduardo (lu71n0) 100 (200) 2014-06-16 01:28:42
#209 Jian Wen (XxWappenxX) 100 (4048) 2014-06-22 19:31:22
#210 Hughes (hughes) 100 (4534) 2014-06-30 23:19:56
#211 Murd0ck (Murd0ck) 100 (300) 2014-07-06 00:02:00
#212 Julia Bernotat (El Greco ) 100 (81129) 2014-07-09 21:35:27
#213 James Gavin (madgav) 100 (1000) 2014-07-12 13:22:07
#214 AxxmIRsx (AxxmIRsx) 100 (3046) 2014-07-16 17:46:34
#215 julius gaius (julius) 100 (25581) 2014-07-19 20:00:12
#216 Egon Hamburger (Seehase) 100 (3445) 2014-07-24 10:23:57
#217 Peter (51dc30ddc) 100 (10916) 2014-07-24 23:51:52
#218 Robert (rm) 100 (56012) 2014-07-31 21:53:29
#219 Christof B. (beans90) 100 (9488) 2014-08-11 15:37:26
#220 Markus (Wasser) 100 (702) 2014-08-13 15:14:46
#221 coldwaterq (coldwaterq) 100 (1705) 2014-08-16 00:44:06
#222 Tiloan (Tiloan) 100 (3840) 2014-08-18 20:58:26
#223 Dan M. (antistarrunner) 100 (700) 2014-08-26 08:54:02
#224 Rachel (Invisibility) 100 (1101) 2014-08-26 23:03:34
#225 Isabella (Isa) 100 (4235) 2014-09-02 00:13:29
#226 Ivan Bucalo (parisian_brotha) 100 (300) 2014-09-02 16:00:07
#227 Kerstin (herzchen412) 100 (3937) 2014-09-04 10:33:38
#228 Dmitry (DmitryMikhailov) 100 (1300) 2014-09-06 19:17:31
#229 Lane Williams (planetlane) 100 (6248) 2014-09-10 23:44:24
#230 tw0b1x (tw0b1x5) 100 (700) 2014-09-11 11:25:29
#231 Daniel (Praktikant3) 100 (300) 2014-09-23 10:02:08
#232 Alex (Krypto66) 100 (300) 2014-09-23 10:04:37
#233 Darren (barr306) 100 (1056) 2014-09-23 23:06:18
#234 testgrr (testgrr) 100 (3940) 2014-09-29 11:59:13
#235 Alexander Davis (acd05c) 100 (1100) 2014-09-30 00:30:36
#236 Jeetsagar (jeetsagar) 100 (2429) 2014-10-03 19:15:11
#237 Jan (Keiken) 100 (2717) 2014-10-13 14:54:49
#238 Alexander Svensen (alexander.svensen) 100 (500) 2014-10-16 16:03:44
#239 Señor Saturn (senorsaturn) 100 (3344) 2014-10-21 00:07:15
#240 John (jgoalby) 100 (3238) 2014-10-24 21:49:27
#241 darius (dman14) 100 (2328) 2014-10-25 10:07:35
#242 Alexand Matrosov (havesomeyankee) 100 (2028) 2014-10-27 13:55:38
#243 Francisco Moraes (fmoraes) 100 (90044) 2014-11-03 04:38:55
#244 Andreas Frerichs (Ossili) 100 (33026) 2014-11-06 14:06:00
#245 Tim Fink (Magellan) 100 (3726) 2014-11-08 07:01:02
#246 HolgerK (HolgerK) 100 (23648) 2014-11-26 19:19:03
#247 Michael Jeffrey (empjay) 100 (2404) 2014-11-29 19:24:52
#248 Ata (WolfTurd) 100 (300) 2014-12-04 09:39:20
#249 Martin Stenzel (mpst2005) 100 (500) 2014-12-09 16:24:17
#250 David Chapman (dchapman2690) 100 (800) 2014-12-10 16:34:52
#251 Timo (Conundraah) 100 (400) 2014-12-15 16:36:42
#252 Annie (Annanasss) 100 (6813) 2014-12-17 14:28:39
#253 Sheldrake (Sheldrake) 100 (400) 2015-01-01 00:21:56
#254 Nik Maks (nik) 100 (1201) 2015-01-02 11:42:11
#255 Kai Ludwig (TalentRaspel) 100 (15704) 2015-01-05 02:24:29
#256 cothan (cothan) 100 (2124) 2015-01-22 06:46:27
#257 Ulrich Dorobeck (Papageno) 100 (3422) 2015-01-31 09:32:53
#258 T (Wagner) 100 (9444) 2015-02-09 22:27:51
#259 micaman (micaman) 100 (4233) 2015-02-11 01:53:19
#260 Tom Tox (tox) 100 (11752) 2015-02-12 21:57:21
#261 Georgius Stolte (HazmatsFear) 100 (14247) 2015-02-15 21:19:42
#262 Zonkism (zonkism) 100 (4004) 2015-02-16 19:21:37
#263 Tadas (Alianto) 100 (1723) 2015-02-22 17:13:53
#264 Rainer Zufall (kiekuk) 100 (42198) 2015-02-23 21:37:21
#265 Vinodh Ravichandran (Vinod_Unicorn) 100 (600) 2015-02-24 17:47:42
#266 SANJANA SURESH KUMAR (sanjana5) 100 (200) 2015-02-24 17:55:27
#267 bill (llibyddap) 100 (2323) 2015-02-25 04:02:23
#268 Adam (udips) 100 (100) 2015-02-26 12:25:00
#269 mucha505 (mucha505) 100 (400) 2015-02-26 12:26:31
#270 Konstantin Golovan (SoulShaker) 100 (14091) 2015-02-27 15:10:59
#271 Marta (argo916) 100 (501) 2015-02-28 21:24:39
#272 Philippe ALLARD (Flobert) 100 (4035) 2015-03-08 01:57:00
#273 Ignacio (Moebiusar) 100 (4774) 2015-03-11 20:39:59
#274 iqmast (iqmast) 100 (2522) 2015-03-24 15:49:04
#275 Palash Chatterjee (brut3f0rc3) 100 (600) 2015-03-25 14:49:48
#276 tyo centaury (tyocentaury) 100 (200) 2015-03-26 08:53:54
#277 partamier (yann) 100 (5435) 2015-03-28 15:10:18
#278 Joel Dierkes (idiobi) 100 (400) 2015-04-03 20:53:47
#279 S (Dingo_the_BB) 100 (6534) 2015-04-06 17:58:10
#280 Martin Schulz (Kristallseele) 100 (2122) 2015-04-16 14:20:49
#281 Peter (Garnet) 100 (14033) 2015-04-20 16:08:14
#282 Kurkowski (ThomasK) 100 (2226) 2015-05-02 13:15:08
#283 Mehmet Adali (mehmetadali) 100 (2620) 2015-05-14 01:20:50
#284 Chris Randle (narny) 100 (3126) 2015-05-14 16:24:33
#285 Ethan (EESearch) 100 (3925) 2015-05-23 00:47:47
#286 M (m3000) 100 (300) 2015-05-23 18:07:03
#287 Michael Ammon (Ammonym) 100 (7719) 2015-05-24 14:52:04
#288 Mate (Sherlock) 100 (700) 2015-05-28 20:55:31
#289 Niklas (Seuchenpilz) 100 (301) 2015-06-03 23:18:12
#290 Defekt75 (Defekt75) 100 (4325) 2015-06-14 19:04:12
#291 D (devilchn) 100 (11142) 2015-06-17 15:45:07
#292 Osmund Francis (osmund.francis) 100 (100) 2015-07-02 13:35:40
#293 Mark van Heeswijk (markvh) 100 (2600) 2015-07-05 20:05:21
#294 Mark (Destranix) 100 (500) 2015-07-07 15:10:08
#295 Erik (Erox) 100 (20365) 2015-07-12 13:30:01
#296 Eva Wagnerová (e.wa) 100 (500) 2015-07-16 11:27:47
#297 Maria (julesjulchen) 100 (2819) 2015-07-20 17:59:03
#298 Tradecraft (Tradecraft) 100 (5540) 2015-08-04 13:05:58
#299 n3v4nc4 (n3v4nc4) 100 (800) 2015-08-21 20:26:00
#300 Jens Hansen (bonnaix) 100 (3410) 2015-09-04 15:03:28
#301 Sirius (Leznar) 100 (4552) 2015-09-07 11:11:06
#302 Joris Diesvelt (SylverFox) 100 (4019) 2015-09-09 14:15:54
#303 Joerg G. (SnifferMaster) 100 (17225) 2015-09-12 13:01:48
#304 Chris Kolonko (ckolonko) 100 (900) 2015-09-13 17:13:31
#305 Ewan Taylor (E_Taylor272) 100 (100) 2015-09-18 20:43:48
#306 Naser Al Ibrahim (q8naser92) 100 (1216) 2015-09-20 16:56:59
#307 hamad alghanim (dreamer_soul) 100 (1316) 2015-09-25 13:51:29
#308 Fawaz (fawaz30) 100 (1316) 2015-09-25 17:12:00
#309 Sven (BoZt) 100 (500) 2015-09-26 15:04:46
#310 mariam (Engmariam) 100 (1216) 2015-09-27 21:14:30
#311 fahad (engbasri) 100 (100) 2015-09-27 21:16:13
#312 mohammed faleh (mod__7) 100 (100) 2015-09-29 19:07:19
#313 Gergely Simon (george314) 100 (16555) 2015-09-29 20:24:01
#314 Dominick (Zokio) 100 (1100) 2015-10-01 01:27:06
#315 Alain Collignon (vexilla72) 100 (48599) 2015-10-03 05:46:18
#316 BananaJoee (BananaJoee) 100 (2515) 2015-10-07 19:39:08
#317 Natalie (natalie147) 100 (1815) 2015-10-16 11:43:50
#318 Martin (martinbucher) 100 (22726) 2015-10-18 12:33:38
#319 Alex (pwn3r) 100 (3418) 2015-10-22 12:20:30
#320 S (Zyphe) 100 (8324) 2015-10-25 11:39:07
#321 Tobias (bunnycarbon) 100 (100) 2015-10-25 13:08:01
#322 Foster (forst) 100 (2515) 2015-10-26 15:37:26
#323 Comyu (Comyu) 100 (200) 2015-10-29 10:30:21
#324 Szabó Zoltán (szabo.z87) 100 (47990) 2015-10-29 18:31:44
#325 Isabella (hundstorfer) 100 (300) 2015-10-30 18:22:04
#326 koaidien (koaidien) 100 (2215) 2015-11-02 08:49:06
#327 Ivan Dujmovic (Naight) 100 (100) 2015-11-05 09:18:50
#328 Leo (Leocopo) 100 (2214) 2015-11-05 20:15:09
#329 Daniel Walder (ibex) 100 (3716) 2015-11-06 21:22:22
#330 Eida (eida90) 100 (100) 2015-11-13 12:39:28
#331 Kai Fischell (MrFlector) 100 (900) 2015-11-20 07:45:56
#332 Jeremy Juenger (The_Shocker_12) 100 (3720) 2015-11-23 06:31:24
#333 Martina (BonoV) 100 (2616) 2015-11-23 18:05:27
#334 Joog (Joog) 100 (1208) 2015-12-03 16:04:26
#335 Rainer (Rainer74) 100 (8417) 2015-12-04 21:44:25
#336 Jan (xray) 100 (904) 2015-12-09 13:13:23
#337 Andre Mueller (amueller) 100 (3215) 2015-12-13 19:47:55
#338 Wolfgang Kittenberger (kittekat) 100 (600) 2015-12-14 18:47:10
#339 nori (nori) 100 (400) 2015-12-18 07:55:28
#340 Merricx (Merricx) 100 (4516) 2015-12-22 18:35:52
#341 Kaito Kid (kaito_kid) 100 (3215) 2015-12-24 08:48:49
#342 Marc (rcll0891) 100 (17460) 2016-01-02 19:36:56
#343 Dominik M. (Sgt. Pepper) 100 (32672) 2016-01-03 22:27:14
#344 Daniel Neubacher (dneubacher) 100 (2413) 2016-01-06 17:34:17
#345 slentheng (slentheng) 100 (500) 2016-01-07 22:02:12
#346 chris (aut.Chris) 100 (200) 2016-01-07 22:32:12
#347 Do Xuan Thang (doxuanthang) 100 (901) 2016-01-08 08:05:33
#348 Peter Horner (Peer) 100 (4764) 2016-01-08 10:52:38
#349 Paul Codio (Lardo_Kelvin) 100 (1713) 2016-01-08 22:19:12
#350 Casaubon (cfreuden) 100 (8515) 2016-01-11 10:25:24
#351 mer (zag9117) 100 (501) 2016-01-17 10:25:31
#352 Simon (billi85) 100 (300) 2016-01-17 16:55:23
#353 Spaceman (C. Nucleus) 100 (1401) 2016-01-22 10:50:16
#354 Marcello (kingmsnx) 100 (700) 2016-01-23 17:30:37
#355 Michael (soilfront) 100 (2617) 2016-01-24 12:59:04
#356 Fabian (XP-72) 100 (3496) 2016-01-27 23:54:45
#357 WF (f077) 100 (6774) 2016-02-02 21:26:43
#358 Wojciech (WojciechM) 100 (501) 2016-02-03 09:47:14
#359 Ich (Captain Frodo) 100 (400) 2016-02-06 14:25:17
#360 Patrick Renz (tarantulla) 100 (2027) 2016-02-25 12:29:43
#361 Marco Manfredi (mkk9901) 100 (17686) 2016-02-26 17:49:10
#362 Ines (bufo01) 100 (3612) 2016-03-13 20:54:07
#363 Felix (brender) 100 (500) 2016-03-15 15:01:55
#364 Mihaly (curt1s) 100 (601) 2016-03-18 14:13:25
#365 Gabriel Bigpenguin (BigPenguin) 100 (500) 2016-03-19 07:09:24
#366 Ömer Faruk Demirel (hihihaha) 100 (2911) 2016-04-04 14:59:21
#367 DI (diliska) 100 (300) 2016-04-08 08:31:20
#368 R Melton (rmelton1234) 100 (200) 2016-05-11 05:09:42
#369 Akshay M.B (akshaymb) 100 (200) 2016-06-12 10:43:57
#370 R Vignesh (Vignesh) 100 (2209) 2016-06-12 12:03:31
#371 lucas (moro) 100 (200) 2016-06-18 16:49:26
#372 Ben (Seraph) 100 (2009) 2016-06-20 21:45:27
#373 LiVuoiQueiKiwi (LiVuoiQueiKiwi) 100 (2109) 2016-06-21 14:06:22
#374 Norbert Biermann (Norbert) 100 (40024) 2016-07-06 20:02:49
#375 Alex (Alxez) 100 (200) 2016-07-08 01:14:54
#376 SMF (SMF) 100 (2208) 2016-07-12 00:19:41
#377 mjustprocrastinating (kb) 100 (2116) 2016-07-16 02:01:14
#378 Qinncade (Qinncade) 100 (2460) 2016-07-17 17:07:29
#379 Brian Bullis (yankeeman1081) 100 (1608) 2016-07-19 20:16:51
#380 Andre Korgi (Kortsy) 100 (600) 2016-07-19 20:33:49
#381 Josh Hager (joshhager) 100 (600) 2016-07-19 20:45:56
#382 Tim Magoun (timmagoun) 100 (600) 2016-07-19 20:46:03
#383 ash (shu) 100 (1808) 2016-07-21 22:07:54
#384 Paul (Puapal) 100 (2208) 2016-07-27 01:32:38
#385 Riese (ripsquirrel) 100 (600) 2016-07-27 19:43:55
#386 Josh Marza (badinfluence) 100 (2208) 2016-07-30 11:12:04
#387 Hajoe (Tintin-Muc) 100 (4307) 2016-08-03 08:48:55
#388 Jens (McStryke) 100 (1600) 2016-08-04 12:53:00
#389 Flaviu (SpiriFlaviu) 100 (300) 2016-08-06 13:52:26
#390 Benjamin Snavely (kaka) 100 (2708) 2016-08-06 21:53:24
#391 Kurona (Kurona) 100 (1000) 2016-08-07 17:38:07
#392 CESH (cesh) 100 (4995) 2016-08-18 03:00:12
#393 mirth23 (mirth23) 100 (7050) 2016-08-21 08:20:20
#394 Tobias (Sanchairudo) 100 (1807) 2016-08-21 10:52:41
#395 Rene (Renederberserker) 100 (800) 2016-08-21 20:29:35
#396 Mike (Mikpopo1) 100 (200) 2016-08-22 02:05:14
#397 BARBARA GUARAGNI (b_guaragni) 100 (500) 2016-08-27 22:29:59
#398 leo (leo_mgt) 100 (1407) 2016-08-28 00:57:13
#399 Marcin Zawadzki (harry007) 100 (3012) 2016-09-01 13:51:05
#400 Luciano Ignaczak (CryptoClass) 100 (3505) 2016-09-02 00:07:14
#401 Issa Bankz (DSFX) 100 (400) 2016-09-05 16:01:50
#402 Robert Kosten (Robert Kosten) 100 (2724) 2016-09-08 16:39:33
#403 Ali Kanarie (Ali Kanarie) 100 (1900) 2016-09-09 00:49:50
#404 Snow (serpent) 100 (1101) 2016-09-09 11:34:06
#405 Tom (StopDoingThis) 100 (500) 2016-09-13 12:23:53
#406 Mirko Rendey (Biork) 100 (6295) 2016-09-13 12:24:59
#407 HeinzelMann (Ohm) 100 (5295) 2016-09-13 12:28:05
#408 John Felix (johnf) 100 (3705) 2016-09-13 16:01:50
#409 Peter Mustermann (Gummiboot) 100 (60285) 2016-09-15 18:19:08
#410 Marc (m413rc) 100 (1907) 2016-09-22 12:57:00
#411 Nicolas (nicosPavlov) 100 (70954) 2016-09-28 17:46:02
#412 Jim Kats (jimkats) 100 (200) 2016-10-04 01:47:47
#413 Meine Registrierung (TryC3) 100 (6045) 2016-10-05 22:22:48
#414 thomas (lenoob) 100 (1000) 2016-10-09 05:34:09
#415 Julian (Lemmynator) 100 (5631) 2016-10-10 16:30:08
#416 AM (nsd23) 100 (2306) 2016-10-12 23:56:55
#417 Brian Russell (dangeruss) 100 (1000) 2016-10-13 19:49:49
#418 Tobias Greiten (fresher) 100 (2206) 2016-10-24 19:48:10
#419 Darchicourt (Darki) 100 (2306) 2016-10-28 12:52:25
#420 Tristan1473 (Tristan1473) 100 (17553) 2016-11-06 11:05:39
#421 Guido Bartoli (guidobartoli80) 100 (1806) 2016-11-14 09:20:09
#422 Janina (Janina) 100 (2106) 2016-11-15 16:11:56
#423 zuben c3 (zuben-c3) 100 (15014) 2016-11-23 12:02:29
#424 Simon Jakob (simon.jakob) 100 (18714) 2016-11-26 23:45:49
#425 Schmocker Anita (Anita) 100 (2205) 2016-11-28 20:16:04
#426 Grigorios (grigorios) 100 (2205) 2016-11-28 20:47:53
#427 Steffen (stmue) 100 (2810) 2016-11-29 10:23:29
#428 JoGo (JoGo) 100 (11285) 2016-11-30 16:39:28
#429 Michael (FoM) 100 (13778) 2016-12-01 22:00:28
#430 J@cK (J@cK) 100 (3800) 2016-12-05 22:13:55
#431 John Stenmark (DoggedWit) 100 (2405) 2016-12-17 14:50:52
#432 Nicholas (nichelfish) 100 (2205) 2016-12-18 13:06:33
#433 Patrick Bieck (Peeweebee) 100 (3366) 2016-12-29 12:47:33
#434 Ais (Ais) 100 (2105) 2017-01-10 14:49:21
#435 Bernd (trimic) 100 (700) 2017-01-22 20:55:29
#436 jsoe luis (jostus11) 100 (700) 2017-01-24 13:01:15
#437 alex (ALEXNOVES) 100 (500) 2017-01-27 14:08:23
#438 Rene (ion) 100 (5617) 2017-02-02 19:18:52
#439 Stefan Scharinger (stefanscharinger) 100 (200) 2017-02-07 10:44:00
#440 Maximilian Wiesmayr (Maxmagdas) 100 (100) 2017-02-07 10:46:14
#441 Daniel Pfeffer (Herr Gewürz) 100 (100) 2017-02-07 10:48:38
#442 Sebastian (BastiArts) 100 (200) 2017-02-07 10:50:57
#443 Markus Wagenleitner (Pfefferhasser) 100 (300) 2017-02-07 10:52:22
#444 Cyfer (Cyfer) 100 (1996) 2017-02-08 12:03:44
#445 Stefan Sadewasser (25Mino88Taurus) 100 (100) 2017-02-12 22:24:08
#446 Danny Higgins (hamster147) 100 (12562) 2017-02-21 14:19:25
#447 Liutauras (Liutauras) 100 (1704) 2017-02-22 20:23:08
#448 Ylli (Aa112) 100 (2104) 2017-02-25 07:42:11
#449 Michael (Dimi) 100 (700) 2017-02-25 15:07:49
#450 Mihail (plexor) 100 (2804) 2017-02-28 11:27:05
#451 Zigmas Satkevičius (Zylius) 100 (2600) 2017-03-02 20:28:44
#452 Vaidotas (Hurrislt) 100 (3579) 2017-03-06 18:41:42
#453 Anggia (Vuleedazula) 100 (1408) 2017-03-07 10:42:28
#454 Leandro Vessozi Epifanio (lvessozi) 100 (400) 2017-03-09 02:57:01
#455 Mir Dim (mir0soft) 100 (21516) 2017-03-09 14:23:31
#456 Andy Kennedy (chieftan1985) 100 (900) 2017-03-14 15:15:15
#457 Chicken Attack (joker1569) 100 (2603) 2017-03-15 15:35:39
#458 chris (c2) 100 (41296) 2017-03-16 13:27:59
#459 Mau_Kappel (Mau_Kappel) 100 (4395) 2017-03-16 19:08:10
#460 Leandro (lvepi) 100 (300) 2017-03-24 00:09:38
#461 Guilherme Felini (guisouzafb) 100 (500) 2017-03-26 23:03:44
You must be logged in to solve the challenge
Pages [1] 1 Show All  
 
 
powered by the CrypTool project  CrypTool

 

   +++    [09:16 - 27.03.2017] c2 solved the Level II challenge 'Enigma Part 1'    +++    [02:05 - 27.03.2017] Sgt. Pepper solved the Level II challenge 'Enigma Part 1'    +++    [23:07 - 26.03.2017] Sgt. Pepper solved the Level I challenge 'Heartbleed — Part 2'    +++    [23:03 - 26.03.2017] guisouzafb solved the Level I challenge 'A hidden word'    +++    [22:57 - 26.03.2017] guisouzafb solved the Level I challenge 'Beaver Code'    +++